Staverton, United Kingdom

10:21 PM BST on July 26, 2017 (GMT +0100)
Gloucestershire

Weather History for EGBJ - December, 2013

Change the Weather History Date:

Wednesday, December 18, 2013

  Actual Average Record
Temperature  
Mean Temperature 48 °F -  
Max Temperature 51 °F 44 °F 57 °F (2015)
Min Temperature 46 °F 38 °F 23 °F (2005)
Degree Days  
Heating Degree Days 16    
Moisture  
Dew Point 45 °F    
Average Humidity 83    
Maximum Humidity 87    
Minimum Humidity 81    
Precipitation  
Precipitation 0.00 in - - ()
Sea Level Pressure  
Sea Level Pressure 29.59 in    
Wind  
Wind Speed 16 mph ()    
Max Wind Speed 30 mph    
Max Gust Speed 46 mph    
Visibility 5.4 miles    
Events Rain    
Averages and records for this station are not official NWS values.
T = Trace of Precipitation, MM = Missing Value Source: Averaged Metar Reports

Daily Weather History Graph

Daily Weather History Graph

Search for Another Location

Airport or City:

Trip Planner

Search our weather history database for the weather conditions in past years. The results will help you decide how hot, cold, wet, or windy it might be!

Date:

Astronomy

Dec. 18, 2013 Rise Set
Actual Time 8:12 AM GMT 3:58 PM GMT
Civil Twilight 7:31 AM GMT 4:39 PM GMT
Nautical Twilight 6:47 AM GMT 5:22 PM GMT
Astronomical Twilight 6:06 AM GMT 6:04 PM GMT
Moon 5:27 PM GMT (12/18) 8:32 AM GMT (12/18)
Length of Visible Light 9h 07m
Length of Day
7h 46m
Full, 99% of the Moon is Illuminated
Dec 18
Full
Dec 25
Last Quarter
Jan 1
New
Jan 8
First Quarter
Jan 16
Full

Hourly Weather History & Observations

Time (GMT) Temp. Windchill Dew Point Humidity Pressure Visibility Wind Dir Wind Speed Gust Speed Precip Events Conditions
6:50 AM 46.4 °F 40.4 °F 41.0 °F 81% 29.83 in 6.2 mi South 13.8 mph - N/A   Partly Cloudy
7:20 AM 46.4 °F 40.1 °F 41.0 °F 81% 29.83 in 6.2 mi South 15.0 mph 26.5 mph N/A   Partly Cloudy
7:50 AM 46.4 °F 39.8 °F 41.0 °F 81% 29.83 in 6.2 mi South 16.1 mph - N/A   Scattered Clouds
8:20 AM 48.2 °F - 42.8 °F 82% 29.80 in 6.2 mi South 17.3 mph - N/A   Light Drizzle
8:50 AM 48.2 °F - 42.8 °F 82% 29.80 in 4.3 mi South 19.6 mph - N/A   Drizzle
9:20 AM 48.2 °F - 44.6 °F 87% 29.80 in 3.7 mi SSE 12.7 mph - N/A Rain Light Rain
9:50 AM 48.2 °F - 44.6 °F 87% 29.77 in 5.0 mi South 13.8 mph 26.5 mph N/A Rain Light Rain
10:20 AM 50.0 °F - 46.4 °F 87% 29.74 in 5.6 mi South 12.7 mph - N/A Rain Light Rain
10:50 AM 50.0 °F - 46.4 °F 87% 29.74 in 6.2 mi South 19.6 mph 32.2 mph N/A Rain Light Rain
11:20 AM 51.8 °F - 46.4 °F 82% 29.71 in 6.2 mi South 20.7 mph 40.3 mph N/A   Mostly Cloudy
11:50 AM 51.8 °F - 46.4 °F 82% 29.68 in 6.2 mi South 19.6 mph 31.1 mph N/A   Mostly Cloudy
12:20 PM 51.8 °F - 46.4 °F 82% 29.65 in 6.2 mi South 18.4 mph 31.1 mph N/A Rain Light Rain
12:50 PM 51.8 °F - 46.4 °F 82% 29.62 in 6.2 mi South 19.6 mph - N/A Rain Light Rain
1:20 PM 51.8 °F - 46.4 °F 82% 29.59 in 6.2 mi South 19.6 mph - N/A Rain Light Rain
1:50 PM 51.8 °F - 46.4 °F 82% 29.56 in 3.1 mi South 18.4 mph 32.2 mph N/A Rain Rain
2:20 PM 51.8 °F - 46.4 °F 82% 29.53 in 5.6 mi SSE 19.6 mph 33.4 mph N/A Rain Light Rain
2:50 PM 50.0 °F - 46.4 °F 87% 29.50 in 3.1 mi SSE 18.4 mph - N/A Rain Light Rain
3:20 PM 51.8 °F - 46.4 °F 82% 29.47 in 5.6 mi SSE 19.6 mph - N/A Rain Light Rain
3:50 PM 51.8 °F - 46.4 °F 82% 29.44 in 5.6 mi SSE 24.2 mph 36.8 mph N/A Rain Light Rain
4:20 PM 51.8 °F - 46.4 °F 82% 29.42 in 5.6 mi South 25.3 mph 40.3 mph N/A Rain Light Rain
4:50 PM 51.8 °F - 46.4 °F 82% 29.36 in 5.6 mi South 26.5 mph 41.4 mph N/A Rain Light Rain
5:20 PM 51.8 °F - 46.4 °F 82% 29.33 in 5.6 mi South 26.5 mph 44.9 mph N/A Rain Light Rain
5:50 PM 51.8 °F - 46.4 °F 82% 29.30 in 5.6 mi South 27.6 mph 43.7 mph N/A Rain Light Rain
6:20 PM 51.8 °F - 46.4 °F 82% 29.27 in 4.3 mi South 29.9 mph 46.0 mph N/A Rain Rain
6:50 PM 51.8 °F - 46.4 °F 82% 29.21 in 4.3 mi SSE 26.5 mph 39.1 mph N/A Rain Rain